This is the latest recevied weather packets stored in our database for station/object VK5GR-12. If no packets are shown the sender has not sent any weather packets the latest 10 day(s).
| Time | Temp. | Humidity | Pressure | Rain* | Wind** | Luminosity | Snow |
|---|---|---|---|---|---|---|---|
| 1778189246 | 12.78° C | 82% | 1029.8 hPa | 0 mm | - | 1 W/m² | - |
| 1778188342 | 12.78° C | 83% | 1029.6 hPa | 0 mm | - | 0 W/m² | - |
| 1778187438 | 12.78° C | 83% | 1029.6 hPa | 0 mm | - | 0 W/m² | - |
| 1778186535 | 12.78° C | 83% | 1029.7 hPa | 0 mm | - | 0 W/m² | - |
| 1778185631 | 12.78° C | 82% | 1029.6 hPa | 0 mm | - | 0 W/m² | - |
| 1778184732 | 12.78° C | 82% | 1029.6 hPa | 0 mm | - | 0 W/m² | - |
| 1778183827 | 12.78° C | 82% | 1029.6 hPa | 0 mm | - | 0 W/m² | - |
| 1778182922 | 12.78° C | 81% | 1029.8 hPa | 0 mm | - | 0 W/m² | - |
| 1778182018 | 12.78° C | 81% | 1029.7 hPa | 0 mm | - | 0 W/m² | - |
| 1778181114 | 12.78° C | 81% | 1029.7 hPa | 0 mm | - | 0 W/m² | - |
| 1778180214 | 12.78° C | 81% | 1029.4 hPa | 0 mm | - | 0 W/m² | - |
| 1778179312 | 12.78° C | 81% | 1029.4 hPa | 0 mm | - | 0 W/m² | - |
| 1778178408 | 12.78° C | 82% | 1029.4 hPa | 0 mm | - | 0 W/m² | - |
| 1778177502 | 12.78° C | 85% | 1029.5 hPa | 0 mm | - | 0 W/m² | - |
| 1778176597 | 12.78° C | 86% | 1029.6 hPa | 0 mm | - | 0 W/m² | - |
| 1778175696 | 12.78° C | 85% | 1029.9 hPa | 0 mm | - | 0 W/m² | - |
| 1778174792 | 12.78° C | 85% | 1029.8 hPa | 0 mm | - | 0 W/m² | - |
| 1778173887 | 12.78° C | 85% | 1029.6 hPa | 0 mm | - | 0 W/m² | - |
| 1778172982 | 12.78° C | 84% | 1029.7 hPa | 0 mm | - | 0 W/m² | - |
| 1778172078 | 12.78° C | 84% | 1029.9 hPa | 0 mm | - | 0 W/m² | - |
| 1778171174 | 12.78° C | 84% | 1030 hPa | 0 mm | - | 0 W/m² | - |
| 1778170269 | 12.78° C | 82% | 1030.1 hPa | 0 mm | - | 0 W/m² | - |
| 1778169369 | 13.33° C | 77% | 1029.9 hPa | 0 mm | - | 0 W/m² | - |
| 1778168466 | 13.33° C | 76% | 1030 hPa | 0 mm | - | 0 W/m² | - |
| 1778167561 | 12.78° C | 75% | 1030.2 hPa | 0 mm | - | 0 W/m² | - |
* Rain latest hour (hover to see other rain measurements)
** Current wind speed in m/s (hover to see current wind gust speed)